MDA191 RCQC-RCSS

Flight info

Callsign MDA191
Flight time N/A
Altitude 19000
Route SWORD1A SWORD A1 HLG HLG1E
Aircraft E190/M-SDE3GILORVW/S

Departure

Time 2026-04-20 12:46
Airport Penghu Magong Airport (RCQC)

Arrival

Time N/A
Airport Taipei Songshan International Airport (RCSS)
Time Latitude Longitude Altitude Speed Heading
2026-04-20 12:20 23.56151 119.62906 97 ft 0 kts 105°
2026-04-20 12:38 23.56151 119.62905 97 ft 0 kts 105°
2026-04-20 12:39 23.56158 119.62880 97 ft 4 kts 110°
2026-04-20 12:40 23.56167 119.62852 97 ft 4 kts 119°
2026-04-20 12:40 23.56183 119.62833 97 ft 4 kts 173°
2026-04-20 12:40 23.56202 119.62836 99 ft 4 kts 198°
2026-04-20 12:40 23.56224 119.62843 98 ft 1 kts 198°
2026-04-20 12:41 23.56224 119.62844 98 ft 0 kts 198°
2026-04-20 12:43 23.56219 119.62842 97 ft 4 kts 198°
2026-04-20 12:43 23.56155 119.62819 97 ft 15 kts 198°
2026-04-20 12:43 23.56020 119.62770 98 ft 24 kts 198°
2026-04-20 12:44 23.55855 119.62711 97 ft 30 kts 198°
2026-04-20 12:44 23.55673 119.62646 104 ft 30 kts 198°
2026-04-20 12:44 23.55539 119.62556 109 ft 14 kts 268°
2026-04-20 12:44 23.55563 119.62467 109 ft 17 kts 290°
2026-04-20 12:45 23.55637 119.62381 109 ft 17 kts 12°
2026-04-20 12:45 23.55893 119.62477 104 ft 82 kts 18°
2026-04-20 12:45 23.56738 119.62770 113 ft 170 kts 19°
2026-04-20 12:45 23.58006 119.63304 646 ft 221 kts 22°
2026-04-20 12:46 23.59469 119.64165 1425 ft 245 kts 30°
2026-04-20 12:46 23.60631 119.65321 1856 ft 209 kts 45°
2026-04-20 12:46 23.61620 119.66550 2299 ft 228 kts 47°
2026-04-20 12:46 23.62700 119.67938 2772 ft 249 kts 47°
2026-04-20 12:47 23.63873 119.69306 3238 ft 252 kts 44°
2026-04-20 12:47 23.65105 119.70670 3693 ft 253 kts 43°
2026-04-20 12:47 23.66350 119.72037 4152 ft 255 kts 43°
2026-04-20 12:47 23.67606 119.73413 4600 ft 257 kts 43°
2026-04-20 12:48 23.68873 119.74799 5053 ft 259 kts 43°
2026-04-20 12:48 23.70145 119.76197 5501 ft 260 kts 43°
2026-04-20 12:48 23.71426 119.77606 5946 ft 262 kts 43°
2026-04-20 12:48 23.72714 119.79023 6399 ft 264 kts 43°
2026-04-20 12:49 23.73993 119.80432 6842 ft 265 kts 43°
2026-04-20 12:49 23.75298 119.81867 7293 ft 268 kts 43°
2026-04-20 12:49 23.76607 119.83304 7673 ft 263 kts 43°
2026-04-20 12:49 23.77939 119.84769 8084 ft 283 kts 43°
2026-04-20 12:50 23.79363 119.86339 8530 ft 295 kts 43°
2026-04-20 12:50 23.80811 119.87939 8986 ft 297 kts 43°
2026-04-20 12:50 23.82268 119.89545 9436 ft 299 kts 43°
2026-04-20 12:50 23.83733 119.91163 9889 ft 300 kts 43°
2026-04-20 12:51 23.85222 119.92805 10350 ft 312 kts 43°
2026-04-20 12:51 23.86770 119.94511 10801 ft 329 kts 43°
2026-04-20 12:51 23.88402 119.96313 10890 ft 333 kts 43°
2026-04-20 12:51 23.90044 119.98108 10121 ft 337 kts 43°
2026-04-20 12:52 23.91748 119.99954 8554 ft 355 kts 43°
2026-04-20 12:52 23.93544 120.01896 7806 ft 353 kts 43°
2026-04-20 12:52 23.95218 120.03727 7543 ft 333 kts 43°
2026-04-20 12:52 23.96862 120.05518 6847 ft 330 kts 43°
2026-04-20 12:53 23.98425 120.07202 6772 ft 308 kts 42°
2026-04-20 12:53 23.99950 120.08850 5758 ft 319 kts 43°
2026-04-20 12:53 24.01574 120.10614 4269 ft 340 kts 43°
2026-04-20 12:53 24.03290 120.12474 3277 ft 344 kts 43°
2026-04-20 12:54 24.04954 120.14235 2950 ft 324 kts 42°
2026-04-20 12:54 24.06570 120.15911 2444 ft 315 kts 41°
2026-04-20 12:54 24.08083 120.17456 2639 ft 283 kts 40°
2026-04-20 12:54 24.09527 120.18877 2338 ft 278 kts 39°
2026-04-20 12:55 24.11030 120.20137 1875 ft 265 kts 28°
2026-04-20 12:55 24.12547 120.20835 9 ft 141 kts
2026-04-20 12:55 24.13304 120.20934 4 ft 80 kts 345°
2026-04-20 12:55 24.13618 120.20832 4 ft 12 kts 341°